Back to Top

Language: 

My Weather Underground Personal Weather Station Historical Data with Graphs...

Delerius Weather Station Historical Data
Daily Summary for February 26, 2017 Units:  English    Metric   Both
« Previous Day
Next Day »
Daily Weekly Monthly Yearly Custom
  High: Low: Average:
Temperature: 52.2 °F 43.2 °F 48.5 °F
Dew Point: 47.8 °F 39.6 °F 44 °F
Humidity: 95 % 77 % 85 %
Wind Speed: 24.0 mph 0.0 mph 11.5 mph
Wind Gust: 30.0 mph - -
Wind:- - SW
Pressure: 29.62 in 29.33 in -
Precipitation: 0.05 in    
Historical Graphs
 
 
Tabular Data for February 26, 2017
Time Temperature Dew Point Pressure Wind Wind Speed Wind Gust Humidity Rainfall Rate (Hourly) solar Conditions
00:00 48.9 °F 47.2 °F 29.60 in SSW 8.0 mph 16.0 mph 94 % 0.00 in 0 W/m2
00:05 48.9 °F 47.2 °F 29.60 in SW 8.0 mph 16.0 mph 94 % 0.00 in 0 W/m2
00:15 48.9 °F 47.2 °F 29.60 in SW 8.0 mph 8.0 mph 94 % 0.00 in 0 W/m2
00:20 48.9 °F 47.2 °F 29.60 in SW 7.0 mph 7.0 mph 94 % 0.00 in 0 W/m2
00:30 49.0 °F 47.3 °F 29.60 in SSW 9.0 mph 9.0 mph 94 % 0.00 in 0 W/m2
00:35 49.1 °F 47.4 °F 29.60 in SSW 9.0 mph 13.0 mph 94 % 0.00 in 0 W/m2
00:45 49.1 °F 47.4 °F 29.60 in SSW 7.0 mph 8.0 mph 94 % 0.00 in 0 W/m2
00:50 49.1 °F 47.4 °F 29.60 in SSW 7.0 mph 7.0 mph 94 % 0.00 in 0 W/m2
00:55 49.0 °F 47.3 °F 29.60 in South 6.0 mph 7.0 mph 94 % 0.00 in 0 W/m2
01:00 49.0 °F 47.6 °F 29.60 in SSW 6.0 mph 6.0 mph 95 % 0.00 in 0 W/m2
01:05 49.0 °F 47.6 °F 29.60 in SSE 6.0 mph 15.0 mph 95 % 0.00 in 0 W/m2
01:10 49.0 °F 47.6 °F 29.60 in SSW 4.0 mph 4.0 mph 95 % 0.00 in 0 W/m2
01:20 49.0 °F 47.6 °F 29.59 in SSW 5.0 mph 15.0 mph 95 % 0.00 in 0 W/m2
01:25 49.1 °F 47.7 °F 29.59 in SSW 5.0 mph 15.0 mph 95 % 0.00 in 0 W/m2
01:30 49.1 °F 47.7 °F 29.59 in SW 4.0 mph 15.0 mph 95 % 0.00 in 0 W/m2
01:35 49.1 °F 47.7 °F 29.59 in SW 3.0 mph 15.0 mph 95 % 0.00 in 0 W/m2
01:40 49.1 °F 47.7 °F 29.59 in SW 2.0 mph 15.0 mph 95 % 0.00 in 0 W/m2
01:50 49.2 °F 47.8 °F 29.59 in SW 1.0 mph 1.0 mph 95 % 0.00 in 0 W/m2
02:00 49.1 °F 47.7 °F 29.59 in Calm   15.0 mph 95 % 0.00 in 0 W/m2
02:05 49.1 °F 47.7 °F 29.59 in Calm   15.0 mph 95 % 0.00 in 0 W/m2
02:10 49.2 °F 47.8 °F 29.59 in WSW 2.0 mph 15.0 mph 95 % 0.00 in 0 W/m2
02:15 49.2 °F 47.8 °F 29.59 in WSW 2.0 mph 15.0 mph 95 % 0.00 in 0 W/m2
02:25 49.2 °F 47.8 °F 29.59 in Calm   15.0 mph 95 % 0.00 in 0 W/m2
02:30 49.2 °F 47.8 °F 29.59 in Calm   15.0 mph 95 % 0.00 in 0 W/m2
02:35 49.1 °F 47.7 °F 29.58 in Calm   15.0 mph 95 % 0.00 in 0 W/m2
02:40 49.0 °F 47.6 °F 29.58 in WNW 2.0 mph 15.0 mph 95 % 0.00 in 0 W/m2
02:45 48.8 °F 47.4 °F 29.59 in WNW 6.0 mph 15.0 mph 95 % 0.00 in 0 W/m2
02:50 48.5 °F 47.1 °F 29.59 in NW 8.0 mph 15.0 mph 95 % 0.00 in 0 W/m2
03:00 48.2 °F 46.8 °F 29.59 in WNW 8.0 mph 15.0 mph 95 % 0.00 in 0 W/m2
03:05 48.1 °F 46.5 °F 29.59 in West 9.0 mph 15.0 mph 94 % 0.00 in 0 W/m2
03:10 48.0 °F 46.4 °F 29.59 in West 7.0 mph 7.0 mph 94 % 0.00 in 0 W/m2
03:20 47.7 °F 46.1 °F 29.60 in West 6.0 mph 15.0 mph 94 % 0.00 in 0 W/m2
03:25 47.6 °F 46.0 °F 29.59 in WNW 6.0 mph 15.0 mph 94 % 0.00 in 0 W/m2
03:35 47.4 °F 45.5 °F 29.60 in West 6.0 mph 7.0 mph 93 % 0.00 in 0 W/m2
03:40 47.4 °F 45.5 °F 29.60 in West 5.0 mph 5.0 mph 93 % 0.00 in 0 W/m2
03:45 47.4 °F 45.5 °F 29.60 in West 5.0 mph 6.0 mph 93 % 0.00 in 0 W/m2
03:50 47.4 °F 45.2 °F 29.60 in West 5.0 mph 5.0 mph 92 % 0.00 in 0 W/m2
04:00 47.3 °F 45.1 °F 29.60 in West 3.0 mph 3.0 mph 92 % 0.00 in 0 W/m2
04:10 47.2 °F 45.0 °F 29.60 in West 4.0 mph 15.0 mph 92 % 0.00 in 0 W/m2
04:15 47.2 °F 44.7 °F 29.60 in West 5.0 mph 15.0 mph 91 % 0.00 in 0 W/m2
04:20 47.1 °F 44.6 °F 29.60 in West 7.0 mph 15.0 mph 91 % 0.00 in 0 W/m2
04:25 47.1 °F 44.6 °F 29.60 in West 8.0 mph 15.0 mph 91 % 0.00 in 0 W/m2
04:30 47.0 °F 44.5 °F 29.60 in West 5.0 mph 5.0 mph 91 % 0.00 in 0 W/m2
04:40 46.9 °F 44.4 °F 29.61 in WSW 4.0 mph 15.0 mph 91 % 0.00 in 0 W/m2
04:45 46.8 °F 44.3 °F 29.61 in West 6.0 mph 15.0 mph 91 % 0.00 in 0 W/m2
04:50 46.7 °F 44.2 °F 29.61 in West 6.0 mph 6.0 mph 91 % 0.00 in 0 W/m2
04:55 46.7 °F 44.2 °F 29.61 in West 5.0 mph 15.0 mph 91 % 0.00 in 0 W/m2
05:00 46.6 °F 43.8 °F 29.61 in West 7.0 mph 15.0 mph 90 % 0.00 in 0 W/m2
05:05 46.7 °F 43.6 °F 29.61 in West 7.0 mph 15.0 mph 89 % 0.00 in 0 W/m2
05:15 46.6 °F 43.5 °F 29.61 in WNW 4.0 mph 15.0 mph 89 % 0.00 in 0 W/m2
05:20 46.6 °F 43.2 °F 29.61 in WNW 3.0 mph 15.0 mph 88 % 0.00 in 0 W/m2
05:25 46.5 °F 43.1 °F 29.61 in NW 3.0 mph 15.0 mph 88 % 0.00 in 0 W/m2
05:35 46.4 °F 42.7 °F 29.61 in WSW 3.0 mph 15.0 mph 87 % 0.00 in 0 W/m2
05:40 46.4 °F 42.7 °F 29.62 in SW 2.0 mph 15.0 mph 87 % 0.00 in 0 W/m2
05:50 46.3 °F 42.6 °F 29.61 in West 3.0 mph 15.0 mph 87 % 0.00 in 0 W/m2
05:55 46.3 °F 42.3 °F 29.61 in West 5.0 mph 15.0 mph 86 % 0.00 in 0 W/m2
06:00 46.3 °F 42.3 °F 29.61 in WSW 6.0 mph 6.0 mph 86 % 0.00 in 0 W/m2
06:05 46.3 °F 42.0 °F 29.61 in SW 6.0 mph 9.0 mph 85 % 0.00 in 0 W/m2
06:10 46.2 °F 41.9 °F 29.61 in WSW 6.0 mph 6.0 mph 85 % 0.00 in 0 W/m2
06:20 46.2 °F 41.6 °F 29.61 in SW 6.0 mph 15.0 mph 84 % 0.00 in 0 W/m2
06:25 46.2 °F 41.6 °F 29.61 in West 7.0 mph 15.0 mph 84 % 0.00 in 0 W/m2
06:30 46.2 °F 41.3 °F 29.61 in WSW 8.0 mph 15.0 mph 83 % 0.00 in 0 W/m2
06:35 46.2 °F 41.3 °F 29.61 in WSW 9.0 mph 15.0 mph 83 % 0.00 in 0 W/m2
06:40 46.3 °F 41.1 °F 29.61 in WSW 10.0 mph 10.0 mph 82 % 0.00 in 0 W/m2
06:45 46.3 °F 41.1 °F 29.61 in WSW 10.0 mph 13.0 mph 82 % 0.00 in 0 W/m2
06:55 46.3 °F 41.4 °F 29.61 in SW 8.0 mph 15.0 mph 83 % 0.00 in 0 W/m2
07:00 46.2 °F 41.3 °F 29.61 in West 7.0 mph 7.0 mph 83 % 0.00 in 5 W/m2
07:10 46.2 °F 41.6 °F 29.61 in SW 6.0 mph 15.0 mph 84 % 0.00 in 12 W/m2
07:15 46.2 °F 41.6 °F 29.60 in WSW 6.0 mph 15.0 mph 84 % 0.00 in 14 W/m2
07:20 46.4 °F 41.5 °F 29.60 in WSW 8.0 mph 8.0 mph 83 % 0.00 in 9 W/m2
07:30 46.6 °F 41.4 °F 29.60 in SSW 10.0 mph 15.0 mph 82 % 0.00 in 14 W/m2
07:35 46.7 °F 41.5 °F 29.61 in SW 10.0 mph 15.0 mph 82 % 0.00 in 16 W/m2
07:40 46.6 °F 41.4 °F 29.61 in SW 8.0 mph 15.0 mph 82 % 0.00 in 14 W/m2
07:45 46.6 °F 41.4 °F 29.61 in WSW 9.0 mph 15.0 mph 82 % 0.00 in 12 W/m2
07:50 46.6 °F 41.4 °F 29.61 in SW 9.0 mph 9.0 mph 82 % 0.00 in 14 W/m2
08:00 46.7 °F 41.5 °F 29.60 in WSW 10.0 mph 15.0 mph 82 % 0.00 in 39 W/m2
08:05 46.7 °F 41.8 °F 29.60 in SW 11.0 mph 15.0 mph 83 % 0.00 in 46 W/m2
08:10 46.7 °F 42.1 °F 29.60 in SW 11.0 mph 21.0 mph 84 % 0.00 in 56 W/m2
08:15 46.6 °F 42.0 °F 29.59 in South 12.0 mph 21.0 mph 84 % 0.00 in 40 W/m2
08:20 46.6 °F 42.3 °F 29.59 in SW 13.0 mph 15.0 mph 85 % 0.00 in 54 W/m2
08:25 46.6 °F 42.3 °F 29.58 in SW 12.0 mph 15.0 mph 85 % 0.00 in 84 W/m2
08:35 46.9 °F 42.6 °F 29.58 in South 10.0 mph 15.0 mph 85 % 0.00 in 58 W/m2
08:45 47.0 °F 42.4 °F 29.57 in SW 10.0 mph 16.0 mph 84 % 0.00 in 186 W/m2
08:50 47.3 °F 42.7 °F 29.57 in SSW 12.0 mph 20.0 mph 84 % 0.00 in 142 W/m2
08:55 47.5 °F 42.6 °F 29.57 in SSW 13.0 mph 20.0 mph 83 % 0.00 in 257 W/m2
09:00 47.9 °F 43.0 °F 29.57 in SW 13.0 mph 15.0 mph 83 % 0.00 in 336 W/m2
09:10 48.2 °F 43.0 °F 29.57 in SW 15.0 mph 15.0 mph 82 % 0.00 in 155 W/m2
09:15 48.2 °F 43.0 °F 29.57 in SW 14.0 mph 15.0 mph 82 % 0.00 in 232 W/m2
09:20 48.5 °F 43.3 °F 29.57 in SW 13.0 mph 13.0 mph 82 % 0.00 in 276 W/m2
09:25 48.7 °F 42.8 °F 29.57 in WSW 14.0 mph 14.0 mph 80 % 0.00 in 141 W/m2
09:30 48.7 °F 42.8 °F 29.57 in West 13.0 mph 13.0 mph 80 % 0.00 in 90 W/m2
09:40 48.6 °F 42.7 °F 29.57 in SW 14.0 mph 15.0 mph 80 % 0.00 in 135 W/m2
09:45 48.7 °F 42.8 °F 29.58 in WSW 15.0 mph 15.0 mph 80 % 0.00 in 139 W/m2
09:50 48.9 °F 42.7 °F 29.57 in WSW 17.0 mph 17.0 mph 79 % 0.00 in 265 W/m2
09:55 49.1 °F 43.2 °F 29.57 in West 17.0 mph 17.0 mph 80 % 0.00 in 339 W/m2
10:05 49.7 °F 43.1 °F 29.56 in West 17.0 mph 18.0 mph 78 % 0.00 in 297 W/m2
10:10 49.6 °F 43.0 °F 29.55 in WSW 18.0 mph 21.0 mph 78 % 0.00 in 253 W/m2
10:20 49.5 °F 42.9 °F 29.55 in SW 16.0 mph 19.0 mph 78 % 0.00 in 251 W/m2
10:25 49.5 °F 43.3 °F 29.55 in WSW 16.0 mph 19.0 mph 79 % 0.00 in 230 W/m2
10:30 49.5 °F 43.3 °F 29.55 in SW 17.0 mph 27.0 mph 79 % 0.00 in 146 W/m2
10:35 49.3 °F 43.1 °F 29.55 in WSW 17.0 mph 27.0 mph 79 % 0.00 in 104 W/m2
10:40 49.1 °F 42.9 °F 29.55 in WSW 18.0 mph 22.0 mph 79 % 0.00 in 95 W/m2
10:50 49.2 °F 43.0 °F 29.54 in SW 17.0 mph 23.0 mph 79 % 0.00 in 125 W/m2
10:55 49.2 °F 43.0 °F 29.54 in SW 16.0 mph 23.0 mph 79 % 0.00 in 142 W/m2
11:00 49.3 °F 43.1 °F 29.53 in SW 17.0 mph 18.0 mph 79 % 0.00 in 141 W/m2
11:05 49.3 °F 43.1 °F 29.54 in South 17.0 mph 21.0 mph 79 % 0.00 in 165 W/m2
11:10 49.4 °F 43.2 °F 29.54 in SW 16.0 mph 21.0 mph 79 % 0.00 in 174 W/m2
11:20 49.7 °F 43.5 °F 29.54 in SW 13.0 mph 15.0 mph 79 % 0.00 in 167 W/m2
11:25 49.8 °F 43.5 °F 29.54 in SW 12.0 mph 15.0 mph 79 % 0.00 in 200 W/m2
11:30 50.0 °F 43.7 °F 29.54 in SSW 13.0 mph 13.0 mph 79 % 0.00 in 202 W/m2
11:40 50.2 °F 43.9 °F 29.53 in South 11.0 mph 11.0 mph 79 % 0.00 in 93 W/m2
11:45 50.3 °F 43.7 °F 29.53 in SW 11.0 mph 15.0 mph 78 % 0.00 in 111 W/m2
11:55 50.4 °F 43.8 °F 29.52 in SW 10.0 mph 15.0 mph 78 % 0.00 in 67 W/m2
12:00 50.4 °F 43.8 °F 29.52 in South 9.0 mph 9.0 mph 78 % 0.00 in 60 W/m2
12:05 50.4 °F 43.8 °F 29.51 in South 8.0 mph 15.0 mph 78 % 0.00 in 56 W/m2
12:10 50.4 °F 43.8 °F 29.51 in SSW 8.0 mph 15.0 mph 78 % 0.00 in 63 W/m2
12:15 50.5 °F 43.9 °F 29.50 in SSW 9.0 mph 15.0 mph 78 % 0.00 in 91 W/m2
12:20 50.5 °F 43.9 °F 29.50 in SSW 11.0 mph 11.0 mph 78 % 0.00 in 116 W/m2
12:30 50.5 °F 43.6 °F 29.49 in SW 11.0 mph 11.0 mph 77 % 0.00 in 137 W/m2
12:35 50.6 °F 44.0 °F 29.49 in SW 12.0 mph 12.0 mph 78 % 0.00 in 153 W/m2
12:40 50.6 °F 44.0 °F 29.49 in SW 10.0 mph 15.0 mph 78 % 0.00 in 153 W/m2
12:45 50.4 °F 43.8 °F 29.49 in SSW 13.0 mph 15.0 mph 78 % 0.00 in 183 W/m2
12:50 50.5 °F 44.2 °F 29.48 in SSE 14.0 mph 22.0 mph 79 % 0.00 in 179 W/m2
13:00 50.4 °F 44.1 °F 29.48 in SSW 17.0 mph 17.0 mph 79 % 0.00 in 104 W/m2
13:05 50.4 °F 44.1 °F 29.47 in South 14.0 mph 17.0 mph 79 % 0.00 in 114 W/m2
13:10 50.4 °F 44.5 °F 29.47 in WSW 12.0 mph 15.0 mph 80 % 0.00 in 121 W/m2
13:15 50.5 °F 44.6 °F 29.46 in SSW 12.0 mph 15.0 mph 80 % 0.00 in 142 W/m2
13:20 50.5 °F 44.6 °F 29.46 in SSW 14.0 mph 14.0 mph 80 % 0.00 in 200 W/m2
13:25 50.6 °F 44.7 °F 29.45 in SSW 17.0 mph 17.0 mph 80 % 0.00 in 234 W/m2
13:30 50.6 °F 45.0 °F 29.44 in SW 19.0 mph 20.0 mph 81 % 0.00 in 260 W/m2
13:35 50.8 °F 45.2 °F 29.44 in WSW 19.0 mph 20.0 mph 81 % 0.00 in 295 W/m2
13:40 51.1 °F 45.5 °F 29.43 in WSW 17.0 mph 17.0 mph 81 % 0.00 in 396 W/m2
13:50 51.4 °F 45.4 °F 29.42 in WSW 17.0 mph 25.0 mph 80 % 0.00 in 302 W/m2
13:55 51.5 °F 45.5 °F 29.42 in SW 21.0 mph 25.0 mph 80 % 0.00 in 543 W/m2
14:00 51.9 °F 45.9 °F 29.42 in SSW 22.0 mph 23.0 mph 80 % 0.00 in 561 W/m2
14:10 52.2 °F 45.5 °F 29.41 in SW 23.0 mph 26.0 mph 78 % 0.00 in 374 W/m2
14:15 52.0 °F 45.7 °F 29.40 in WSW 24.0 mph 29.0 mph 79 % 0.00 in 301 W/m2
14:20 51.5 °F 45.5 °F 29.40 in SW 22.0 mph 22.0 mph 80 % 0.00 in 304 W/m2
14:25 51.2 °F 45.6 °F 29.40 in SW 20.0 mph 22.0 mph 81 % 0.00 in 216 W/m2
14:30 51.0 °F 45.4 °F 29.40 in SW 19.0 mph 19.0 mph 81 % 0.00 in 334 W/m2
14:40 51.2 °F 45.2 °F 29.39 in South 20.0 mph 20.0 mph 80 % 0.00 in 213 W/m2
14:45 51.2 °F 45.2 °F 29.39 in SSW 20.0 mph 20.0 mph 80 % 0.00 in 220 W/m2
14:50 51.1 °F 45.1 °F 29.38 in SW 21.0 mph 21.0 mph 80 % 0.00 in 199 W/m2
14:55 51.0 °F 45.4 °F 29.38 in SSW 21.0 mph 22.0 mph 81 % 0.00 in 132 W/m2
15:05 50.9 °F 45.3 °F 29.38 in SW 18.0 mph 22.0 mph 81 % 0.00 in 142 W/m2
15:10 50.9 °F 45.3 °F 29.38 in South 18.0 mph 18.0 mph 81 % 0.00 in 158 W/m2
15:15 50.9 °F 45.6 °F 29.37 in SSW 18.0 mph 21.0 mph 82 % 0.00 in 114 W/m2
15:25 50.9 °F 45.3 °F 29.37 in SW 18.0 mph 18.0 mph 81 % 0.00 in 135 W/m2
15:30 51.0 °F 45.4 °F 29.37 in SW 18.0 mph 18.0 mph 81 % 0.00 in 144 W/m2
15:35 51.2 °F 45.6 °F 29.36 in SW 19.0 mph 19.0 mph 81 % 0.00 in 134 W/m2
15:40 51.2 °F 45.2 °F 29.36 in South 20.0 mph 20.0 mph 80 % 0.00 in 90 W/m2
15:50 51.2 °F 45.2 °F 29.35 in SW 20.0 mph 20.0 mph 80 % 0.00 in 107 W/m2
15:55 51.2 °F 45.2 °F 29.36 in SW 19.0 mph 20.0 mph 80 % 0.00 in 69 W/m2
16:00 51.2 °F 45.2 °F 29.35 in WSW 21.0 mph 27.0 mph 80 % 0.00 in 39 W/m2
16:05 51.2 °F 45.2 °F 29.35 in SSW 20.0 mph 27.0 mph 80 % 0.00 in 76 W/m2
16:10 51.2 °F 45.2 °F 29.35 in SW 19.0 mph 25.0 mph 80 % 0.00 in 49 W/m2
16:20 51.2 °F 45.2 °F 29.34 in SW 20.0 mph 22.0 mph 80 % 0.00 in 42 W/m2
16:25 51.2 °F 45.2 °F 29.34 in SSW 20.0 mph 29.0 mph 80 % 0.00 in 37 W/m2
16:30 51.1 °F 45.5 °F 29.34 in SSW 19.0 mph 20.0 mph 81 % 0.00 in 21 W/m2
16:35 51.0 °F 45.4 °F 29.34 in SSW 18.0 mph 23.0 mph 81 % 0.00 in 23 W/m2
16:45 51.1 °F 45.5 °F 29.34 in SSW 20.0 mph 25.0 mph 81 % 0.00 in 23 W/m2
16:50 51.1 °F 45.8 °F 29.34 in SSW 19.0 mph 20.0 mph 82 % 0.00 in 11 W/m2
17:00 51.2 °F 45.9 °F 29.34 in SW 19.0 mph 25.0 mph 82 % 0.00 in 16 W/m2
17:05 51.1 °F 45.8 °F 29.33 in SW 19.0 mph 25.0 mph 82 % 0.00 in 12 W/m2
17:10 51.0 °F 46.0 °F 29.34 in SSW 20.0 mph 24.0 mph 83 % 0.00 in 12 W/m2
17:15 50.9 °F 46.2 °F 29.33 in South 20.0 mph 24.0 mph 84 % 0.00 in 7 W/m2
17:20 50.6 °F 46.3 °F 29.33 in SSW 19.0 mph 19.0 mph 85 % 0.00 in 7 W/m2
17:30 50.1 °F 46.7 °F 29.33 in SW 19.0 mph 19.0 mph 88 % 0.00 in 0 W/m2
17:35 50.0 °F 46.6 °F 29.33 in South 18.0 mph 19.0 mph 88 % 0.00 in 0 W/m2
17:40 49.9 °F 46.8 °F 29.34 in SW 17.0 mph 20.0 mph 89 % 0.00 in 0 W/m2
17:50 49.6 °F 46.8 °F 29.33 in South 17.0 mph 17.0 mph 90 % 0.00 in 0 W/m2
17:55 49.5 °F 47.0 °F 29.33 in SSW 17.0 mph 26.0 mph 91 % 0.00 in 0 W/m2
18:05 49.3 °F 45.3 °F 29.34 in SW 20.0 mph 30.0 mph 86 % 0.00 in 0 W/m2
18:10 49.4 °F 44.8 °F 29.34 in SW 24.0 mph 24.0 mph 84 % 0.00 in 0 W/m2
18:15 49.2 °F 44.9 °F 29.33 in SW 23.0 mph 24.0 mph 85 % 0.05 in 0 W/m2
18:20 49.2 °F 44.9 °F 29.34 in NW 20.0 mph 23.0 mph 85 % 0.05 in 0 W/m2
18:25 49.2 °F 44.9 °F 29.33 in WSW 21.0 mph 23.0 mph 85 % 0.05 in 0 W/m2
18:35 49.7 °F 44.7 °F 29.33 in SSW 20.0 mph 24.0 mph 83 % 0.00 in 0 W/m2
18:40 49.9 °F 44.6 °F 29.34 in SW 20.0 mph 20.0 mph 82 % 0.00 in 0 W/m2
18:45 49.9 °F 44.3 °F 29.34 in WSW 19.0 mph 20.0 mph 81 % 0.00 in 0 W/m2
18:50 49.9 °F 44.3 °F 29.34 in WSW 19.0 mph 19.0 mph 81 % 0.00 in 0 W/m2
18:55 49.8 °F 44.2 °F 29.34 in WSW 17.0 mph 19.0 mph 81 % 0.00 in 0 W/m2
19:00 49.9 °F 44.3 °F 29.34 in WSW 17.0 mph 17.0 mph 81 % 0.00 in 0 W/m2
19:10 49.8 °F 44.2 °F 29.34 in SW 18.0 mph 18.0 mph 81 % 0.00 in 0 W/m2
19:20 49.9 °F 44.0 °F 29.34 in WSW 17.0 mph 23.0 mph 80 % 0.00 in 0 W/m2
19:25 49.8 °F 43.9 °F 29.34 in WSW 17.0 mph 23.0 mph 80 % 0.00 in 0 W/m2
19:30 49.8 °F 43.5 °F 29.34 in WSW 19.0 mph 19.0 mph 79 % 0.00 in 0 W/m2
19:35 49.6 °F 43.4 °F 29.34 in WSW 19.0 mph 19.0 mph 79 % 0.00 in 0 W/m2
19:45 49.2 °F 42.6 °F 29.35 in WSW 18.0 mph 20.0 mph 78 % 0.00 in 0 W/m2
19:50 49.2 °F 42.6 °F 29.36 in SSW 17.0 mph 19.0 mph 78 % 0.00 in 0 W/m2
19:55 49.1 °F 42.5 °F 29.36 in West 16.0 mph 20.0 mph 78 % 0.00 in 0 W/m2
20:00 49.2 °F 42.6 °F 29.37 in West 18.0 mph 19.0 mph 78 % 0.00 in 0 W/m2
20:05 49.0 °F 42.8 °F 29.37 in WSW 19.0 mph 19.0 mph 79 % 0.00 in 0 W/m2
20:15 47.7 °F 42.8 °F 29.38 in West 16.0 mph 25.0 mph 83 % 0.00 in 0 W/m2
20:20 47.3 °F 42.7 °F 29.37 in WSW 15.0 mph 15.0 mph 84 % 0.00 in 0 W/m2
20:25 47.1 °F 42.8 °F 29.38 in West 14.0 mph 15.0 mph 85 % 0.00 in 0 W/m2
20:30 47.1 °F 42.8 °F 29.37 in SW 13.0 mph 15.0 mph 85 % 0.00 in 0 W/m2
20:35 47.1 °F 43.1 °F 29.37 in WSW 13.0 mph 18.0 mph 86 % 0.00 in 0 W/m2
20:45 47.1 °F 43.1 °F 29.38 in WSW 11.0 mph 15.0 mph 86 % 0.00 in 0 W/m2
20:55 47.1 °F 42.8 °F 29.38 in West 11.0 mph 15.0 mph 85 % 0.00 in 0 W/m2
21:00 47.0 °F 42.7 °F 29.39 in West 9.0 mph 9.0 mph 85 % 0.00 in 0 W/m2
21:05 46.8 °F 42.8 °F 29.39 in West 8.0 mph 15.0 mph 86 % 0.00 in 0 W/m2
21:10 46.6 °F 42.6 °F 29.39 in West 8.0 mph 15.0 mph 86 % 0.00 in 0 W/m2
21:15 46.6 °F 42.3 °F 29.39 in WSW 9.0 mph 15.0 mph 85 % 0.00 in 0 W/m2
21:25 46.4 °F 42.1 °F 29.39 in WNW 6.0 mph 15.0 mph 85 % 0.00 in 0 W/m2
21:30 46.2 °F 41.6 °F 29.39 in WSW 6.0 mph 6.0 mph 84 % 0.00 in 0 W/m2
21:35 46.1 °F 41.5 °F 29.39 in WSW 5.0 mph 15.0 mph 84 % 0.00 in 0 W/m2
21:40 45.8 °F 41.2 °F 29.39 in WSW 2.0 mph 2.0 mph 84 % 0.00 in 0 W/m2
21:45 45.5 °F 40.9 °F 29.39 in SW 2.0 mph 15.0 mph 84 % 0.00 in 0 W/m2
21:55 45.3 °F 40.4 °F 29.39 in SW 4.0 mph 15.0 mph 83 % 0.00 in 0 W/m2
22:00 45.3 °F 40.1 °F 29.39 in SSW 6.0 mph 15.0 mph 82 % 0.00 in 0 W/m2
22:10 45.3 °F 39.8 °F 29.39 in SW 7.0 mph 7.0 mph 81 % 0.00 in 0 W/m2
22:15 45.3 °F 40.1 °F 29.38 in WSW 5.0 mph 15.0 mph 82 % 0.00 in 0 W/m2
22:20 45.3 °F 40.1 °F 29.39 in SW 5.0 mph 15.0 mph 82 % 0.00 in 0 W/m2
22:30 45.3 °F 40.4 °F 29.38 in SW 6.0 mph 15.0 mph 83 % 0.00 in 0 W/m2
22:35 45.3 °F 40.4 °F 29.38 in SW 5.0 mph 15.0 mph 83 % 0.00 in 0 W/m2
22:40 45.3 °F 40.7 °F 29.38 in SW 6.0 mph 6.0 mph 84 % 0.00 in 0 W/m2
22:45 45.2 °F 40.7 °F 29.38 in SW 5.0 mph 15.0 mph 84 % 0.00 in 0 W/m2
22:50 45.3 °F 41.1 °F 29.38 in SSW 4.0 mph 15.0 mph 85 % 0.00 in 0 W/m2
22:55 45.2 °F 41.0 °F 29.38 in SSW 3.0 mph 15.0 mph 85 % 0.00 in 0 W/m2
23:00 45.2 °F 41.3 °F 29.38 in SSW 3.0 mph 15.0 mph 86 % 0.00 in 0 W/m2
23:05 45.1 °F 41.2 °F 29.38 in SSW 2.0 mph 15.0 mph 86 % 0.00 in 0 W/m2
23:10 45.0 °F 41.4 °F 29.38 in SW 3.0 mph 15.0 mph 87 % 0.00 in 0 W/m2
23:15 44.8 °F 41.2 °F 29.38 in SW 7.0 mph 15.0 mph 87 % 0.00 in 0 W/m2
23:20 44.5 °F 40.9 °F 29.38 in West 9.0 mph 9.0 mph 87 % 0.00 in 0 W/m2
23:30 43.9 °F 40.6 °F 29.39 in SW 9.0 mph 9.0 mph 88 % 0.00 in 0 W/m2
23:40 43.6 °F 40.3 °F 29.38 in SW 7.0 mph 7.0 mph 88 % 0.00 in 0 W/m2
23:45 43.4 °F 39.8 °F 29.38 in SW 8.0 mph 9.0 mph 87 % 0.00 in 0 W/m2
23:50 43.3 °F 39.7 °F 29.38 in SW 7.0 mph 7.0 mph 87 % 0.00 in 0 W/m2
23:55 43.2 °F 39.6 °F 29.38 in WSW 6.0 mph 15.0 mph 87 % 0.00 in 0 W/m2
Delerius-Weather
Compliments of Weather Underground - 2 mb

Data updates at regular intervals.